Time,TemperatureF,DewpointF,PressureIn,WindDirection,WindDirectionDegrees,WindSpeedMPH,WindSpeedGustMPH,Humidity,HourlyPrecipIn,Conditions,Clouds,dailyrainin,SoftwareType,DateUTC
2013-02-26 00:00:00,32.9,29.5,30.26,ESE,112,0.0,0.0,87,0.00,CLR,CLR,0.00,WeatherDisplay:10.37,2013-02-26 05:00:00,
2013-02-26 00:15:00,32.9,29.5,30.26,ESE,112,0.0,0.0,87,0.00,CLR,CLR,0.00,WeatherDisplay:10.37,2013-02-26 05:15:00,
2013-02-26 00:30:00,32.9,29.5,30.26,ESE,112,0.0,0.0,87,0.00,CLR,CLR,0.00,WeatherDisplay:10.37,2013-02-26 05:30:00,
2013-02-26 00:45:00,32.9,29.5,30.22,ESE,112,0.0,0.0,87,0.00,CLR,CLR,0.00,WeatherDisplay:10.37,2013-02-26 05:45:00,
2013-02-26 01:00:00,32.9,29.5,30.22,ESE,112,0.0,0.0,87,0.00,CLR,CLR,0.00,WeatherDisplay:10.37,2013-02-26 06:00:00,
2013-02-26 01:15:00,32.9,29.5,30.19,ESE,112,0.0,0.0,87,0.00,CLR,CLR,0.00,WeatherDisplay:10.37,2013-02-26 06:15:00,
2013-02-26 01:30:00,32.9,29.5,30.19,ESE,112,0.0,0.0,87,0.00,CLR,CLR,0.00,WeatherDisplay:10.37,2013-02-26 06:30:00,
2013-02-26 01:45:00,32.9,29.5,30.19,ESE,112,0.0,0.0,87,0.00,CLR,CLR,0.00,WeatherDisplay:10.37,2013-02-26 06:45:00,
2013-02-26 02:00:00,32.9,29.5,30.19,ESE,112,0.0,0.0,87,0.00,CLR,CLR,0.00,WeatherDisplay:10.37,2013-02-26 07:00:00,
2013-02-26 02:15:00,32.7,29.3,30.18,ESE,112,0.0,0.0,87,0.00,CLR,CLR,0.00,WeatherDisplay:10.37,2013-02-26 07:15:00,
2013-02-26 02:30:00,32.9,29.5,30.19,ESE,112,0.0,0.0,87,0.00,CLR,CLR,0.00,WeatherDisplay:10.37,2013-02-26 07:30:00,
2013-02-26 02:45:00,32.9,29.5,30.19,NW,319,0.0,0.0,87,0.00,CLR,CLR,0.00,WeatherDisplay:10.37,2013-02-26 07:45:00,
2013-02-26 03:00:00,32.9,29.5,30.19,WNW,288,0.0,0.0,87,0.00,CLR,CLR,0.00,WeatherDisplay:10.37,2013-02-26 08:00:00,
2013-02-26 03:15:00,32.9,29.5,30.22,NNW,338,0.0,0.0,87,0.00,CLR,CLR,0.00,WeatherDisplay:10.37,2013-02-26 08:15:00,
2013-02-26 03:30:00,32.9,29.5,30.22,NNW,338,0.0,0.0,87,0.00,CLR,CLR,0.00,WeatherDisplay:10.37,2013-02-26 08:30:00,
2013-02-26 03:45:00,32.7,29.3,30.22,NNW,338,0.0,0.0,87,0.00,CLR,CLR,0.00,WeatherDisplay:10.37,2013-02-26 08:45:00,
2013-02-26 04:00:00,32.9,29.5,30.22,WNW,301,0.0,0.0,87,0.00,CLR,CLR,0.00,WeatherDisplay:10.37,2013-02-26 09:00:00,
2013-02-26 04:15:00,32.9,29.5,30.23,NNW,331,0.0,0.0,87,0.00,CLR,CLR,0.00,WeatherDisplay:10.37,2013-02-26 09:15:00,
2013-02-26 04:30:00,32.7,29.6,30.22,NW,315,0.0,0.0,88,0.00,CLR,CLR,0.00,WeatherDisplay:10.37,2013-02-26 09:30:00,
2013-02-26 04:45:00,32.7,29.3,30.22,NW,315,0.0,0.0,87,0.00,CLR,CLR,0.00,WeatherDisplay:10.37,2013-02-26 09:45:00,
2013-02-26 05:00:00,32.7,29.6,30.22,NW,315,0.0,0.0,88,0.00,CLR,CLR,0.00,WeatherDisplay:10.37,2013-02-26 10:00:00,
2013-02-26 05:15:00,32.7,29.6,30.23,NW,315,0.0,0.0,88,0.00,CLR,CLR,0.00,WeatherDisplay:10.37,2013-02-26 10:15:00,
2013-02-26 05:30:00,32.7,29.6,30.23,NW,315,0.0,0.0,88,0.00,CLR,CLR,0.00,WeatherDisplay:10.37,2013-02-26 10:30:00,
2013-02-26 05:45:00,32.7,29.6,30.24,North,357,0.0,0.0,88,0.00,CLR,CLR,0.00,WeatherDisplay:10.37,2013-02-26 10:45:00,
2013-02-26 06:00:00,32.7,29.6,30.24,NE,45,0.0,0.0,88,0.00,CLR,CLR,0.00,WeatherDisplay:10.37,2013-02-26 11:00:00,
2013-02-26 06:15:00,32.7,29.6,30.25,NE,45,0.0,0.0,88,0.00,CLR,CLR,0.00,WeatherDisplay:10.37,2013-02-26 11:15:00,
2013-02-26 06:30:00,32.5,29.4,30.25,NE,45,0.0,0.0,88,0.00,CLR,CLR,0.00,WeatherDisplay:10.37,2013-02-26 11:30:00,
2013-02-26 06:45:00,32.7,29.6,30.24,NE,52,0.0,0.0,88,0.00,CLR,CLR,0.00,WeatherDisplay:10.37,2013-02-26 11:45:00,
2013-02-26 07:00:00,32.5,29.4,30.24,East,86,0.0,0.0,88,0.00,CLR,CLR,0.00,WeatherDisplay:10.37,2013-02-26 12:00:00,
2013-02-26 07:15:00,32.7,29.6,30.24,East,90,0.0,0.0,88,0.00,CLR,CLR,0.00,WeatherDisplay:10.37,2013-02-26 12:15:00,
2013-02-26 07:30:00,32.7,29.3,30.24,East,90,0.0,0.0,87,0.00,CLR,CLR,0.00,WeatherDisplay:10.37,2013-02-26 12:30:00,
2013-02-26 07:45:00,33.3,30.1,30.26,East,90,0.0,0.0,88,0.00,CLR,CLR,0.00,WeatherDisplay:10.37,2013-02-26 12:45:00,
2013-02-26 08:00:00,33.3,29.8,30.26,East,90,0.0,0.0,87,0.00,CLR,CLR,0.00,WeatherDisplay:10.37,2013-02-26 13:00:00,
2013-02-26 08:15:00,33.4,30.0,30.27,East,90,0.0,0.0,87,0.00,CLR,CLR,0.00,WeatherDisplay:10.37,2013-02-26 13:15:00,
2013-02-26 08:30:00,33.8,30.6,30.30,East,90,0.0,0.0,88,0.00,CLR,CLR,0.00,WeatherDisplay:10.37,2013-02-26 13:30:00,
2013-02-26 08:45:00,34.5,31.3,30.33,East,90,0.0,0.0,88,0.00,CLR,CLR,0.00,WeatherDisplay:10.37,2013-02-26 13:45:00,
2013-02-26 09:00:00,34.7,31.5,30.33,East,90,0.0,0.0,88,0.00,CLR,CLR,0.00,WeatherDisplay:10.37,2013-02-26 14:00:00,
2013-02-26 09:15:00,35.1,31.9,30.35,East,90,0.0,0.0,88,0.00,CLR,CLR,0.00,WeatherDisplay:10.37,2013-02-26 14:15:00,
2013-02-26 09:30:00,35.1,31.6,30.35,East,90,0.0,0.0,87,0.00,CLR,CLR,0.00,WeatherDisplay:10.37,2013-02-26 14:30:00,
2013-02-26 09:45:00,35.4,31.9,30.34,East,90,0.0,0.0,87,0.00,CLR,CLR,0.00,WeatherDisplay:10.37,2013-02-26 14:45:00,
2013-02-26 10:00:00,35.8,32.3,30.34,East,90,0.0,0.0,87,0.00,CLR,CLR,0.00,WeatherDisplay:10.37,2013-02-26 15:00:00,
2013-02-26 10:15:00,35.6,32.1,30.34,East,90,0.0,0.0,87,0.00,CLR,CLR,0.00,WeatherDisplay:10.37,2013-02-26 15:15:00,
2013-02-26 10:30:00,36.1,32.4,30.33,East,90,0.0,0.0,86,0.00,CLR,CLR,0.00,WeatherDisplay:10.37,2013-02-26 15:30:00,
2013-02-26 10:45:00,36.1,32.4,30.34,East,90,0.0,0.0,86,0.00,CLR,CLR,0.00,WeatherDisplay:10.37,2013-02-26 15:45:00,
2013-02-26 11:00:00,36.1,32.4,30.34,East,90,0.0,0.0,86,0.00,CLR,CLR,0.00,WeatherDisplay:10.37,2013-02-26 16:00:00,
2013-02-26 11:15:00,37.8,33.9,30.34,East,90,0.0,0.0,86,0.00,CLR,CLR,0.00,WeatherDisplay:10.37,2013-02-26 16:15:00,
2013-02-26 11:30:00,37.8,33.9,30.33,East,90,0.0,0.0,86,0.00,CLR,CLR,0.00,WeatherDisplay:10.37,2013-02-26 16:30:00,
2013-02-26 11:45:00,37.6,33.8,30.33,East,90,0.0,0.0,86,0.00,CLR,CLR,0.00,WeatherDisplay:10.37,2013-02-26 16:45:00,
2013-02-26 12:00:00,37.6,33.5,30.33,East,90,0.0,0.0,85,0.00,CLR,CLR,0.00,WeatherDisplay:10.37,2013-02-26 17:00:00,
2013-02-26 12:15:00,37.6,33.5,30.33,East,90,0.0,0.0,85,0.00,CLR,CLR,0.00,WeatherDisplay:10.37,2013-02-26 17:15:00,
2013-02-26 12:30:00,37.2,33.1,30.33,East,90,0.0,0.0,85,0.00,CLR,CLR,0.00,WeatherDisplay:10.37,2013-02-26 17:30:00,
2013-02-26 12:45:00,37.0,32.9,30.33,East,90,0.0,0.0,85,0.00,CLR,CLR,0.00,WeatherDisplay:10.37,2013-02-26 17:45:00,
2013-02-26 13:00:00,37.2,33.1,30.33,East,90,0.0,0.0,85,0.00,CLR,CLR,0.00,WeatherDisplay:10.37,2013-02-26 18:00:00,
2013-02-26 13:15:00,37.9,33.8,30.31,East,90,0.0,0.0,85,0.00,CLR,CLR,0.00,WeatherDisplay:10.37,2013-02-26 18:15:00,
2013-02-26 13:30:00,37.0,32.9,30.32,East,90,0.0,0.0,85,0.00,CLR,CLR,0.00,WeatherDisplay:10.37,2013-02-26 18:30:00,
2013-02-26 13:45:00,37.0,32.9,30.32,East,90,0.0,0.0,85,0.00,CLR,CLR,0.00,WeatherDisplay:10.37,2013-02-26 18:45:00,
2013-02-26 14:00:00,37.2,33.1,30.32,East,90,0.0,0.0,85,0.00,CLR,CLR,0.00,WeatherDisplay:10.37,2013-02-26 19:00:00,
2013-02-26 14:15:00,37.6,33.5,30.30,East,90,0.0,0.0,85,0.00,CLR,CLR,0.00,WeatherDisplay:10.37,2013-02-26 19:15:00,
2013-02-26 14:30:00,37.6,33.5,30.30,East,90,0.0,0.0,85,0.00,CLR,CLR,0.00,WeatherDisplay:10.37,2013-02-26 19:30:00,
2013-02-26 14:45:00,37.4,33.0,30.28,East,90,0.0,0.0,84,0.00,CLR,CLR,0.00,WeatherDisplay:10.37,2013-02-26 19:45:00,
2013-02-26 15:00:00,37.2,32.8,30.28,East,90,0.0,0.0,84,0.00,CLR,CLR,0.00,WeatherDisplay:10.37,2013-02-26 20:00:00,
2013-02-26 15:15:00,36.9,32.8,30.28,East,90,0.0,0.0,85,0.00,CLR,CLR,0.00,WeatherDisplay:10.37,2013-02-26 20:15:00,
2013-02-26 15:30:00,36.7,32.6,30.27,East,90,0.0,0.0,85,0.00,CLR,CLR,0.00,WeatherDisplay:10.37,2013-02-26 20:30:00,
2013-02-26 15:45:00,36.1,32.1,30.23,East,90,0.0,0.0,85,0.00,CLR,CLR,0.00,WeatherDisplay:10.37,2013-02-26 20:45:00,
2013-02-26 16:00:00,35.8,31.7,30.23,East,90,0.0,0.0,85,0.00,CLR,CLR,0.00,WeatherDisplay:10.37,2013-02-26 21:00:00,
2013-02-26 16:15:00,35.8,31.7,30.22,East,90,0.0,0.0,85,0.00,CLR,CLR,0.00,WeatherDisplay:10.37,2013-02-26 21:15:00,
2013-02-26 16:30:00,35.8,31.7,30.21,East,90,0.0,0.0,85,0.00,CLR,CLR,0.00,WeatherDisplay:10.37,2013-02-26 21:30:00,
2013-02-26 16:45:00,35.6,31.5,30.20,East,90,0.0,0.0,85,0.00,CLR,CLR,0.00,WeatherDisplay:10.37,2013-02-26 21:45:00,
2013-02-26 17:00:00,35.4,31.4,30.20,East,90,0.0,0.0,85,0.00,CLR,CLR,0.00,WeatherDisplay:10.37,2013-02-26 22:00:00,
2013-02-26 17:15:00,35.1,31.3,30.20,East,90,0.0,0.0,86,0.00,CLR,CLR,0.00,WeatherDisplay:10.37,2013-02-26 22:15:00,
2013-02-26 17:30:00,34.9,31.1,30.24,East,90,0.0,0.0,86,0.00,CLR,CLR,0.00,WeatherDisplay:10.37,2013-02-26 22:30:00,
2013-02-26 17:45:00,34.3,30.6,30.27,East,90,0.0,0.0,86,0.00,CLR,CLR,0.00,WeatherDisplay:10.37,2013-02-26 22:45:00,
2013-02-26 18:00:00,34.2,30.1,30.27,East,90,0.0,0.0,85,0.00,CLR,CLR,0.00,WeatherDisplay:10.37,2013-02-26 23:00:00,
2013-02-26 18:15:00,34.0,30.2,30.27,East,90,0.0,0.0,86,0.00,CLR,CLR,0.00,WeatherDisplay:10.37,2013-02-26 23:15:00,
2013-02-26 18:30:00,34.0,30.2,30.27,East,90,0.0,0.0,86,0.00,CLR,CLR,0.00,WeatherDisplay:10.37,2013-02-26 23:30:00,
2013-02-26 18:45:00,33.6,29.9,30.27,East,90,0.0,0.0,86,0.00,CLR,CLR,0.00,WeatherDisplay:10.37,2013-02-26 23:45:00,
2013-02-26 19:00:00,33.4,29.7,30.27,East,90,0.0,0.0,86,0.00,CLR,CLR,0.00,WeatherDisplay:10.37,2013-02-27 00:00:00,
2013-02-26 19:15:00,33.4,29.7,30.26,East,90,0.0,0.0,86,0.00,CLR,CLR,0.00,WeatherDisplay:10.37,2013-02-27 00:15:00,
2013-02-26 19:30:00,33.4,29.7,30.27,East,90,0.0,0.0,86,0.00,CLR,CLR,0.00,WeatherDisplay:10.37,2013-02-27 00:30:00,
2013-02-26 19:45:00,33.3,29.5,30.27,East,90,0.0,0.0,86,0.00,CLR,CLR,0.00,WeatherDisplay:10.37,2013-02-27 00:45:00,
2013-02-26 20:00:00,33.1,29.3,30.27,East,90,0.0,0.0,86,0.00,CLR,CLR,0.00,WeatherDisplay:10.37,2013-02-27 01:00:00,
2013-02-26 20:15:00,33.1,29.3,30.28,East,90,0.0,0.0,86,0.00,CLR,CLR,0.00,WeatherDisplay:10.37,2013-02-27 01:15:00,
2013-02-26 20:30:00,32.9,29.2,30.28,East,90,0.0,0.0,86,0.00,CLR,CLR,0.00,WeatherDisplay:10.37,2013-02-27 01:30:00,
2013-02-26 20:45:00,32.7,29.0,30.26,East,90,0.0,0.0,86,0.00,CLR,CLR,0.00,WeatherDisplay:10.37,2013-02-27 01:45:00,
2013-02-26 21:00:00,32.7,29.0,30.26,East,90,0.0,0.0,86,0.00,CLR,CLR,0.00,WeatherDisplay:10.37,2013-02-27 02:00:00,
2013-02-26 21:15:00,32.7,29.0,30.25,East,90,0.0,0.0,86,0.00,CLR,CLR,0.00,WeatherDisplay:10.37,2013-02-27 02:15:00,
2013-02-26 21:30:00,32.9,29.2,30.18,East,90,0.0,0.0,86,0.00,CLR,CLR,0.00,WeatherDisplay:10.37,2013-02-27 02:30:00,
2013-02-26 21:45:00,32.7,29.0,30.16,East,90,0.0,0.0,86,0.00,CLR,CLR,0.00,WeatherDisplay:10.37,2013-02-27 02:45:00,
2013-02-26 22:00:00,32.7,29.0,30.16,East,90,0.0,0.0,86,0.00,CLR,CLR,0.00,WeatherDisplay:10.37,2013-02-27 03:00:00,
2013-02-26 22:15:00,32.9,29.2,30.16,East,90,0.0,0.0,86,0.00,CLR,CLR,0.00,WeatherDisplay:10.37,2013-02-27 03:15:00,
2013-02-26 22:30:00,32.7,29.3,30.16,East,90,0.0,0.0,87,0.00,CLR,CLR,0.00,WeatherDisplay:10.37,2013-02-27 03:30:00,
2013-02-26 22:45:00,32.7,29.3,30.13,East,90,0.0,0.0,87,0.00,CLR,CLR,0.00,WeatherDisplay:10.37,2013-02-27 03:45:00,
2013-02-26 23:00:00,32.7,29.3,30.13,East,90,0.0,0.0,87,0.00,CLR,CLR,0.00,WeatherDisplay:10.37,2013-02-27 04:00:00,
2013-02-26 23:15:00,32.7,29.3,30.12,East,90,0.0,0.0,87,0.00,CLR,CLR,0.00,WeatherDisplay:10.37,2013-02-27 04:15:00,
2013-02-26 23:30:00,32.7,29.3,30.11,East,90,0.0,0.0,87,0.00,CLR,CLR,0.00,WeatherDisplay:10.37,2013-02-27 04:30:00,
2013-02-26 23:45:00,32.7,29.3,30.11,East,90,0.0,0.0,87,0.00,CLR,CLR,0.00,WeatherDisplay:10.37,2013-02-27 04:45:00,